Location: Newark
(15.4608°S, 41.1635°W)
Time: 12:16:57
(UTC+00:00)

XW-2B - Pass Details

Date: 26 February 2020
Orbit: 509 x 526 km, 97.5° (Epoch: 04 April)

Event Time Altitude Azimuth Distance (km) Brightness Sun altitude
Rises 07:23:33 0° 44° (NE) 2,642 ? -19.8°
Reaches altitude 10° 07:26:16 10° 66° (ENE) 1,763 ? -19.2°
Maximum altitude 07:28:39 16° 105° (ESE) 1,428 ? -18.6°
Drops below altitude 10° 07:31:02 10° 144° (SE) 1,778 ? -18.1°
Sets 07:33:48 0° 165° (SSE) 2,675 ? -17.4°
